| time (UTC) | temp C | wind direction | speed KPH | gust KPH | rain 1hr cm | rain 24hr cm | rain mn cm | humidity % | barometer mb |
| 20260509051729 | 13 | 235 | 14.5 | 17.7 | 0.00 | 0.00 | 0.00 | 59 | 1005.4 |
| 20260509051227 | 13 | 322 | 22.5 | 29.0 | 0.00 | 0.00 | 0.00 | 58 | 1005.5 |
| 20260509050723 | 13 | 315 | 12.9 | 20.9 | 0.00 | 0.00 | 0.00 | 55 | 1005.4 |
| 20260509050219 | 13 | 10 | 17.7 | 25.7 | 0.00 | 0.00 | 0.00 | 53 | 1005.4 |
| 20260509045717 | 12 | 278 | 6.4 | 11.3 | 0.00 | 0.00 | 0.00 | 51 | 1005.2 |
| 20260509045214 | 12 | 275 | 9.7 | 12.9 | 0.00 | 0.00 | 0.00 | 50 | 1005.1 |
| 20260509044711 | 12 | 261 | 3.2 | 6.4 | 0.00 | 0.00 | 0.00 | 54 | 1005.0 |
| 20260509044209 | 12 | 260 | 6.4 | 6.4 | 0.00 | 0.00 | 0.00 | 53 | 1004.9 |
| 20260509043705 | 10 | 249 | 1.6 | 4.8 | 0.00 | 0.00 | 0.00 | 63 | 1004.4 |
| 20260509043201 | 10 | 235 | 0.0 | 0.0 | 0.00 | 0.00 | 0.00 | 66 | 1004.2 |
| 20260509042657 | 10 | 255 | 0.0 | 1.6 | 0.00 | 0.00 | 0.00 | 70 | 1003.9 |
| 20260509042153 | 10 | 207 | 0.0 | 1.6 | 0.00 | 0.00 | 0.00 | 73 | 1004.3 |
| 20260509041650 | 10 | 218 | 0.0 | 0.0 | 0.00 | 0.00 | 0.00 | 73 | 1004.2 |
| 20260509041148 | 10 | 219 | 0.0 | 0.0 | 0.00 | 0.00 | 0.00 | 74 | 1004.0 |
| 20260509040646 | 9 | 205 | 0.0 | 0.0 | 0.00 | 0.00 | 0.00 | 74 | 1003.9 |
| 20260509040142 | 10 | 215 | 0.0 | 0.0 | 0.00 | 0.00 | 0.00 | 72 | 1003.8 |
| 20260509035639 | 10 | 217 | 0.0 | 1.6 | 0.00 | 0.00 | 0.00 | 71 | 1003.8 |
| 20260509035136 | 10 | 215 | 0.0 | 1.6 | 0.00 | 0.00 | 0.00 | 71 | 1003.8 |
| 20260509034634 | 10 | 221 | 1.6 | 3.2 | 0.00 | 0.00 | 0.00 | 71 | 1004.1 |
| 20260509034131 | 9 | 214 | 0.0 | 1.6 | 0.00 | 0.00 | 0.00 | 65 | 1004.0 |
| 20260509033628 | 8 | 220 | 1.6 | 1.6 | 0.00 | 0.00 | 0.00 | 62 | 1004.1 |
| 20260509033125 | 8 | 210 | 1.6 | 1.6 | 0.00 | 0.00 | 0.00 | 66 | 1003.9 |
| 20260509032622 | 8 | 163 | 0.0 | 0.0 | 0.00 | 0.00 | 0.00 | 64 | 1004.1 |
| 20260509032119 | 8 | 178 | 0.0 | 0.0 | 0.00 | 0.00 | 0.00 | 70 | 1004.3 |
| 20260509031617 | 9 | 207 | 0.0 | 0.0 | 0.00 | 0.00 | 0.00 | 70 | 1004.6 |
| 20260509031114 | 8 | 221 | 0.0 | 1.6 | 0.00 | 0.00 | 0.00 | 69 | 1004.6 |
| 20260509030612 | 8 | 200 | 0.0 | 0.0 | 0.00 | 0.00 | 0.00 | 72 | 1004.6 |
| 20260509030109 | 9 | 201 | 0.0 | 0.0 | 0.00 | 0.00 | 0.00 | 68 | 1004.7 |
| 20260509025604 | 10 | 217 | 0.0 | 1.6 | 0.00 | 0.00 | 0.00 | 61 | 1004.7 |
| 20260509025100 | 9 | 223 | 0.0 | 1.6 | 0.00 | 0.00 | 0.00 | 63 | 1004.6 |
| 20260509024556 | 9 | 204 | 0.0 | 0.0 | 0.00 | 0.00 | 0.00 | 70 | 1004.7 |
| 20260509024052 | 9 | 210 | 0.0 | 0.0 | 0.00 | 0.00 | 0.00 | 68 | 1004.9 |
| 20260509023550 | 9 | 214 | 0.0 | 0.0 | 0.00 | 0.00 | 0.00 | 61 | 1004.7 |
| 20260509023047 | 9 | 188 | 0.0 | 0.0 | 0.00 | 0.00 | 0.00 | 55 | 1004.9 |
| 20260509022543 | 9 | 188 | 0.0 | 0.0 | 0.00 | 0.00 | 0.00 | 55 | 1004.7 |
| 20260509022041 | 10 | 188 | 0.0 | 0.0 | 0.00 | 0.00 | 0.00 | 52 | 1004.7 |
| 20260509021538 | 10 | 188 | 0.0 | 0.0 | 0.00 | 0.00 | 0.00 | 51 | 1004.5 |
| 20260509021035 | 10 | 188 | 0.0 | 0.0 | 0.00 | 0.00 | 0.00 | 51 | 1004.7 |
| 20260509020533 | 10 | 188 | 0.0 | 0.0 | 0.00 | 0.00 | 0.00 | 50 | 1004.4 |
| 20260509020030 | 11 | 187 | 0.0 | 0.0 | 0.00 | 0.00 | 0.00 | 49 | 1004.6 |
| 20260509015529 | 11 | 186 | 0.0 | 0.0 | 0.00 | 0.00 | 0.00 | 47 | 1004.5 |
| 20260509015026 | 11 | 198 | 0.0 | 0.0 | 0.00 | 0.00 | 0.00 | 47 | 1004.6 |
| 20260509014522 | 12 | 184 | 0.0 | 0.0 | 0.00 | 0.00 | 0.00 | 46 | 1004.6 |
| 20260509014019 | 12 | 184 | 0.0 | 0.0 | 0.00 | 0.00 | 0.00 | 45 | 1004.7 |
| 20260509013516 | 12 | 199 | 0.0 | 0.0 | 0.00 | 0.00 | 0.00 | 43 | 1004.5 |
| 20260509013011 | 13 | 210 | 0.0 | 0.0 | 0.00 | 0.00 | 0.00 | 42 | 1004.7 |
| 20260509012508 | 14 | 213 | 0.0 | 0.0 | 0.00 | 0.00 | 0.00 | 40 | 1004.9 |
| 20260509012005 | 15 | 275 | 0.0 | 1.6 | 0.00 | 0.00 | 0.00 | 37 | 1004.9 |
| 20260509011503 | 15 | 20 | 4.8 | 4.8 | 0.00 | 0.00 | 0.00 | 36 | 1004.9 |
| 20260509011000 | 15 | 289 | 1.6 | 3.2 | 0.00 | 0.00 | 0.00 | 38 | 1004.9 |
| 20260509010458 | 15 | 14 | 3.2 | 3.2 | 0.00 | 0.00 | 0.00 | 38 | 1004.9 |
| 20260509005954 | 15 | 19 | 1.6 | 4.8 | 0.00 | 0.00 | 0.00 | 39 | 1004.9 |
| 20260509005452 | 16 | 335 | 1.6 | 3.2 | 0.00 | 0.00 | 0.00 | 36 | 1005.0 |
| 20260509004946 | 16 | 348 | 6.4 | 6.4 | 0.00 | 0.00 | 0.00 | 36 | 1005.0 |
| 20260509004443 | 16 | 10 | 4.8 | 6.4 | 0.00 | 0.00 | 0.00 | 37 | 1005.0 |
| 20260509003941 | 16 | 328 | 4.8 | 4.8 | 0.00 | 0.00 | 0.00 | 36 | 1005.2 |
| 20260509003439 | 16 | 348 | 8.0 | 9.7 | 0.00 | 0.00 | 0.00 | 34 | 1005.0 |
| 20260509002935 | 16 | 36 | 4.8 | 9.7 | 0.00 | 0.00 | 0.00 | 35 | 1004.9 |
| 20260509002433 | 16 | 46 | 8.0 | 14.5 | 0.00 | 0.00 | 0.00 | 34 | 1005.0 |
| 20260509001930 | 16 | 340 | 8.0 | 14.5 | 0.00 | 0.00 | 0.00 | 34 | 1005.0 |
| 20260509001427 | 17 | 358 | 9.7 | 17.7 | 0.00 | 0.00 | 0.00 | 34 | 1005.1 |
| 20260509000923 | 17 | 266 | 4.8 | 20.9 | 0.00 | 0.00 | 0.00 | 35 | 1005.0 |
| 20260509000421 | 17 | 314 | 6.4 | 16.1 | 0.00 | 0.00 | 0.00 | 35 | 1005.0 |
| 20260508235916 | 17 | 311 | 12.9 | 25.7 | 0.00 | 0.00 | 0.00 | 33 | 1005.0 |
| 20260508235414 | 17 | 344 | 14.5 | 17.7 | 0.00 | 0.00 | 0.00 | 33 | 1005.0 |
| 20260508234906 | 17 | 34 | 6.4 | 14.5 | 0.00 | 0.00 | 0.00 | 34 | 1005.0 |
| 20260508234402 | 17 | 331 | 11.3 | 17.7 | 0.00 | 0.00 | 0.00 | 33 | 1004.9 |
| 20260508233900 | 17 | 6 | 16.1 | 25.7 | 0.00 | 0.00 | 0.00 | 33 | 1004.7 |
| 20260508233400 | 17 | 283 | 14.5 | 29.0 | 0.00 | 0.00 | 0.00 | 32 | 1004.9 |
| 20260508232856 | 17 | 255 | 9.7 | 14.5 | 0.00 | 0.00 | 0.00 | 33 | 1004.7 |
| 20260508232352 | 17 | 58 | 9.7 | 22.5 | 0.00 | 0.00 | 0.00 | 33 | 1004.6 |
| 20260508231851 | 17 | 280 | 19.3 | 37.0 | 0.00 | 0.00 | 0.00 | 33 | 1004.6 |
| 20260508231347 | 18 | 303 | 11.3 | 27.4 | 0.00 | 0.00 | 0.00 | 32 | 1004.6 |
| 20260508230844 | 18 | 260 | 8.0 | 12.9 | 0.00 | 0.00 | 0.00 | 33 | 1005.1 |
| 20260508230340 | 18 | 297 | 17.7 | 20.9 | 0.00 | 0.00 | 0.00 | 31 | 1004.9 |
| 20260508225838 | 18 | 312 | 14.5 | 22.5 | 0.00 | 0.00 | 0.00 | 32 | 1005.0 |
| 20260508225334 | 18 | 327 | 6.4 | 25.7 | 0.00 | 0.00 | 0.00 | 34 | 1004.6 |
| 20260508224833 | 18 | 280 | 17.7 | 20.9 | 0.00 | 0.00 | 0.00 | 31 | 1005.0 |
| 20260508224330 | 18 | 280 | 11.3 | 17.7 | 0.00 | 0.00 | 0.00 | 32 | 1004.6 |
| 20260508223827 | 18 | 319 | 8.0 | 27.4 | 0.00 | 0.00 | 0.00 | 31 | 1004.6 |
| 20260508223324 | 18 | 294 | 22.5 | 29.0 | 0.00 | 0.00 | 0.00 | 30 | 1004.4 |
| 20260508222822 | 18 | 338 | 9.7 | 17.7 | 0.00 | 0.00 | 0.00 | 31 | 1004.3 |
| 20260508222319 | 19 | 278 | 17.7 | 24.1 | 0.00 | 0.00 | 0.00 | 31 | 1004.2 |
| 20260508221815 | 18 | 325 | 14.5 | 22.5 | 0.00 | 0.00 | 0.00 | 32 | 1004.2 |
| 20260508221311 | 19 | 313 | 9.7 | 16.1 | 0.00 | 0.00 | 0.00 | 32 | 1004.3 |
| 20260508220807 | 19 | 316 | 9.7 | 24.1 | 0.00 | 0.00 | 0.00 | 31 | 1004.2 |
| 20260508220304 | 19 | 308 | 20.9 | 25.7 | 0.00 | 0.00 | 0.00 | 31 | 1004.3 |
| 20260508215801 | 19 | 274 | 17.7 | 24.1 | 0.00 | 0.00 | 0.00 | 31 | 1004.4 |
| 20260508215257 | 19 | 275 | 27.4 | 30.6 | 0.00 | 0.00 | 0.00 | 30 | 1004.1 |
| 20260508214754 | 19 | 301 | 29.0 | 40.2 | 0.00 | 0.00 | 0.00 | 30 | 1004.1 |
| 20260508214251 | 20 | 358 | 14.5 | 24.1 | 0.00 | 0.00 | 0.00 | 30 | 1004.1 |
| 20260508213748 | 20 | 334 | 16.1 | 33.8 | 0.00 | 0.00 | 0.00 | 28 | 1004.3 |
| 20260508213245 | 20 | 288 | 20.9 | 33.8 | 0.00 | 0.00 | 0.00 | 27 | 1004.2 |
| 20260508212741 | 20 | 287 | 14.5 | 17.7 | 0.00 | 0.00 | 0.00 | 29 | 1004.1 |
| 20260508212237 | 20 | 354 | 6.4 | 12.9 | 0.00 | 0.00 | 0.00 | 28 | 1004.0 |
| 20260508211733 | 20 | 358 | 14.5 | 17.7 | 0.00 | 0.00 | 0.00 | 28 | 1004.0 |
| 20260508211229 | 20 | 281 | 14.5 | 16.1 | 0.00 | 0.00 | 0.00 | 27 | 1004.0 |
| 20260508210727 | 19 | 301 | 3.2 | 17.7 | 0.00 | 0.00 | 0.00 | 30 | 1004.2 |
| 20260508210224 | 18 | 266 | 12.9 | 25.7 | 0.00 | 0.00 | 0.00 | 27 | 1004.1 |
| 20260508205720 | 19 | 296 | 17.7 | 29.0 | 0.00 | 0.00 | 0.00 | 26 | 1004.0 |
| 20260508205217 | 20 | 346 | 11.3 | 25.7 | 0.00 | 0.00 | 0.00 | 27 | 1004.2 |
| 20260508204713 | 20 | 262 | 20.9 | 25.7 | 0.00 | 0.00 | 0.00 | 25 | 1004.1 |
| 20260508204209 | 20 | 290 | 9.7 | 14.5 | 0.00 | 0.00 | 0.00 | 29 | 1004.2 |
| 20260508203705 | 19 | 339 | 11.3 | 20.9 | 0.00 | 0.00 | 0.00 | 28 | 1004.3 |
| 20260508203202 | 20 | 287 | 14.5 | 27.4 | 0.00 | 0.00 | 0.00 | 26 | 1004.4 |
| 20260508202658 | 20 | 316 | 12.9 | 24.1 | 0.00 | 0.00 | 0.00 | 27 | 1004.2 |
| 20260508202155 | 19 | 296 | 11.3 | 14.5 | 0.00 | 0.00 | 0.00 | 27 | 1004.4 |
| 20260508201652 | 20 | 296 | 8.0 | 17.7 | 0.00 | 0.00 | 0.00 | 30 | 1004.4 |
| 20260508201149 | 20 | 247 | 12.9 | 20.9 | 0.00 | 0.00 | 0.00 | 25 | 1004.2 |
| 20260508200646 | 20 | 319 | 19.3 | 25.7 | 0.00 | 0.00 | 0.00 | 25 | 1004.5 |
| 20260508200142 | 20 | 262 | 14.5 | 17.7 | 0.00 | 0.00 | 0.00 | 24 | 1004.5 |
| 20260508195639 | 19 | 238 | 9.7 | 12.9 | 0.00 | 0.00 | 0.00 | 27 | 1004.6 |
| 20260508195135 | 19 | 324 | 16.1 | 22.5 | 0.00 | 0.00 | 0.00 | 26 | 1004.6 |
| 20260508194632 | 19 | 256 | 11.3 | 17.7 | 0.00 | 0.00 | 0.00 | 25 | 1004.5 |
| 20260508194129 | 20 | 222 | 4.8 | 11.3 | 0.00 | 0.00 | 0.00 | 27 | 1004.6 |
| 20260508193626 | 18 | 272 | 6.4 | 25.7 | 0.00 | 0.00 | 0.00 | 28 | 1004.7 |
| 20260508193122 | 20 | 348 | 4.8 | 9.7 | 0.00 | 0.00 | 0.00 | 30 | 1004.6 |
| 20260508192619 | 20 | 278 | 12.9 | 17.7 | 0.00 | 0.00 | 0.00 | 24 | 1005.0 |
| 20260508192116 | 18 | 237 | 11.3 | 17.7 | 0.00 | 0.00 | 0.00 | 25 | 1005.0 |
| 20260508191613 | 19 | 293 | 3.2 | 20.9 | 0.00 | 0.00 | 0.00 | 28 | 1005.0 |
| 20260508191110 | 20 | 280 | 17.7 | 24.1 | 0.00 | 0.00 | 0.00 | 24 | 1005.2 |
| 20260508190607 | 20 | 193 | 11.3 | 17.7 | 0.00 | 0.00 | 0.00 | 26 | 1005.1 |
| 20260508190103 | 19 | 243 | 9.7 | 14.5 | 0.00 | 0.00 | 0.00 | 27 | 1005.1 |
| 20260508185600 | 19 | 262 | 6.4 | 11.3 | 0.00 | 0.00 | 0.00 | 26 | 1005.0 |
| 20260508185058 | 20 | 233 | 12.9 | 17.7 | 0.00 | 0.00 | 0.00 | 25 | 1005.3 |
| 20260508184555 | 19 | 338 | 3.2 | 9.7 | 0.00 | 0.00 | 0.00 | 31 | 1005.3 |
| 20260508184051 | 19 | 295 | 4.8 | 11.3 | 0.00 | 0.00 | 0.00 | 28 | 1005.5 |
| 20260508183542 | 18 | 241 | 11.3 | 14.5 | 0.00 | 0.00 | 0.00 | 28 | 1005.4 |
| 20260508183038 | 19 | 254 | 4.8 | 14.5 | 0.00 | 0.00 | 0.00 | 25 | 1005.3 |
| 20260508182535 | 18 | 233 | 8.0 | 11.3 | 0.00 | 0.00 | 0.00 | 25 | 1005.5 |
| 20260508182032 | 18 | 276 | 8.0 | 11.3 | 0.00 | 0.00 | 0.00 | 28 | 1005.5 |
| 20260508181527 | 18 | 290 | 11.3 | 12.9 | 0.00 | 0.00 | 0.00 | 28 | 1005.7 |
| 20260508181025 | 18 | 290 | 8.0 | 14.5 | 0.00 | 0.00 | 0.00 | 29 | 1005.6 |
| 20260508180521 | 17 | 261 | 4.8 | 11.3 | 0.00 | 0.00 | 0.00 | 30 | 1005.6 |
| 20260508180018 | 18 | 341 | 8.0 | 12.9 | 0.00 | 0.00 | 0.00 | 27 | 1005.9 |
| 20260508175514 | 17 | 254 | 1.6 | 12.9 | 0.00 | 0.00 | 0.00 | 32 | 1005.9 |
| 20260508175012 | 18 | 243 | 9.7 | 11.3 | 0.00 | 0.00 | 0.00 | 26 | 1005.9 |
| 20260508174509 | 18 | 244 | 3.2 | 6.4 | 0.00 | 0.00 | 0.00 | 30 | 1006.0 |
| 20260508174006 | 17 | 225 | 6.4 | 6.4 | 0.00 | 0.00 | 0.00 | 27 | 1006.2 |
| 20260508173503 | 17 | 226 | 11.3 | 12.9 | 0.00 | 0.00 | 0.00 | 28 | 1006.4 |
| 20260508172959 | 17 | 264 | 3.2 | 14.5 | 0.00 | 0.00 | 0.00 | 31 | 1006.2 |
| 20260508172456 | 17 | 237 | 9.7 | 14.5 | 0.00 | 0.00 | 0.00 | 28 | 1006.5 |
| 20260508171952 | 17 | 240 | 12.9 | 20.9 | 0.00 | 0.00 | 0.00 | 27 | 1006.6 |
| 20260508171449 | 17 | 184 | 4.8 | 11.3 | 0.00 | 0.00 | 0.00 | 28 | 1006.8 |
| 20260508170945 | 17 | 256 | 6.4 | 11.3 | 0.00 | 0.00 | 0.00 | 27 | 1006.7 |
| 20260508170443 | 16 | 255 | 3.2 | 9.7 | 0.00 | 0.00 | 0.00 | 30 | 1006.7 |
| 20260508165939 | 17 | 242 | 9.7 | 12.9 | 0.00 | 0.00 | 0.00 | 27 | 1007.0 |
| 20260508165438 | 17 | 225 | 6.4 | 11.3 | 0.00 | 0.00 | 0.00 | 27 | 1006.8 |
| 20260508164933 | 16 | 240 | 6.4 | 14.5 | 0.00 | 0.00 | 0.00 | 30 | 1007.0 |
| 20260508164430 | 17 | 314 | 9.7 | 14.5 | 0.00 | 0.00 | 0.00 | 28 | 1007.0 |
| 20260508163927 | 17 | 225 | 3.2 | 6.4 | 0.00 | 0.00 | 0.00 | 27 | 1007.1 |
| 20260508163425 | 17 | 264 | 14.5 | 16.1 | 0.00 | 0.00 | 0.00 | 27 | 1007.2 |
| 20260508162920 | 17 | 312 | 6.4 | 12.9 | 0.00 | 0.00 | 0.00 | 31 | 1007.1 |
| 20260508162418 | 17 | 97 | 1.6 | 4.8 | 0.00 | 0.00 | 0.00 | 28 | 1007.0 |
| 20260508161915 | 17 | 274 | 3.2 | 4.8 | 0.00 | 0.00 | 0.00 | 30 | 1007.0 |
| 20260508161412 | 16 | 268 | 3.2 | 4.8 | 0.00 | 0.00 | 0.00 | 31 | 1007.0 |
| 20260508160909 | 16 | 212 | 3.2 | 6.4 | 0.00 | 0.00 | 0.00 | 32 | 1007.1 |
| 20260508160408 | 16 | 220 | 3.2 | 11.3 | 0.00 | 0.00 | 0.00 | 29 | 1007.4 |
| 20260508155904 | 16 | 226 | 3.2 | 6.4 | 0.00 | 0.00 | 0.00 | 31 | 1007.5 |
| 20260508155402 | 16 | 277 | 3.2 | 6.4 | 0.00 | 0.00 | 0.00 | 30 | 1007.5 |
| 20260508154858 | 16 | 235 | 6.4 | 9.7 | 0.00 | 0.00 | 0.00 | 32 | 1007.5 |
| 20260508154356 | 16 | 243 | 1.6 | 12.9 | 0.00 | 0.00 | 0.00 | 29 | 1007.4 |
| 20260508153852 | 16 | 252 | 4.8 | 6.4 | 0.00 | 0.00 | 0.00 | 31 | 1007.5 |
| 20260508153349 | 16 | 255 | 1.6 | 1.6 | 0.00 | 0.00 | 0.00 | 29 | 1007.5 |
| 20260508152845 | 15 | 255 | 3.2 | 4.8 | 0.00 | 0.00 | 0.00 | 35 | 1007.8 |
| 20260508152342 | 15 | 243 | 1.6 | 3.2 | 0.00 | 0.00 | 0.00 | 33 | 1007.5 |
| 20260508151838 | 16 | 231 | 3.2 | 6.4 | 0.00 | 0.00 | 0.00 | 36 | 1007.7 |
| 20260508151335 | 15 | 218 | 1.6 | 6.4 | 0.00 | 0.00 | 0.00 | 31 | 1007.9 |
| 20260508150832 | 15 | 225 | 1.6 | 9.7 | 0.00 | 0.00 | 0.00 | 33 | 1007.8 |
| 20260508150329 | 15 | 353 | 1.6 | 4.8 | 0.00 | 0.00 | 0.00 | 36 | 1008.0 |
| 20260508145825 | 15 | 199 | 1.6 | 3.2 | 0.00 | 0.00 | 0.00 | 40 | 1007.9 |
| 20260508145321 | 14 | 217 | 0.0 | 3.2 | 0.00 | 0.00 | 0.00 | 41 | 1007.9 |
| 20260508144818 | 13 | 235 | 3.2 | 4.8 | 0.00 | 0.00 | 0.00 | 41 | 1007.9 |
| 20260508144315 | 13 | 238 | 4.8 | 6.4 | 0.00 | 0.00 | 0.00 | 42 | 1008.0 |
| 20260508143807 | 12 | 214 | 3.2 | 4.8 | 0.00 | 0.00 | 0.00 | 42 | 1008.2 |
| 20260508143304 | 12 | 211 | 3.2 | 6.4 | 0.00 | 0.00 | 0.00 | 48 | 1008.2 |
| 20260508142801 | 12 | 237 | 1.6 | 6.4 | 0.00 | 0.00 | 0.00 | 52 | 1008.3 |
| 20260508142258 | 12 | 243 | 3.2 | 4.8 | 0.00 | 0.00 | 0.00 | 51 | 1008.2 |
| 20260508141754 | 11 | 222 | 4.8 | 4.8 | 0.00 | 0.00 | 0.00 | 54 | 1008.1 |
| 20260508141251 | 11 | 255 | 4.8 | 6.4 | 0.00 | 0.00 | 0.00 | 57 | 1008.6 |
| 20260508140749 | 11 | 260 | 3.2 | 6.4 | 0.00 | 0.00 | 0.00 | 60 | 1008.4 |
| 20260508140245 | 10 | 228 | 4.8 | 9.7 | 0.00 | 0.00 | 0.00 | 57 | 1008.6 |
| 20260508135741 | 10 | 266 | 3.2 | 6.4 | 0.00 | 0.00 | 0.00 | 64 | 1008.4 |
| 20260508135238 | 10 | 214 | 3.2 | 4.8 | 0.00 | 0.00 | 0.00 | 62 | 1008.6 |
| 20260508134733 | 9 | 225 | 4.8 | 9.7 | 0.00 | 0.00 | 0.00 | 63 | 1008.3 |
| 20260508134231 | 8 | 225 | 6.4 | 6.4 | 0.00 | 0.00 | 0.00 | 64 | 1008.5 |
| 20260508133727 | 8 | 225 | 6.4 | 9.7 | 0.00 | 0.00 | 0.00 | 67 | 1008.4 |
| 20260508133225 | 8 | 234 | 4.8 | 6.4 | 0.00 | 0.00 | 0.00 | 64 | 1008.5 |
| 20260508132722 | 8 | 219 | 3.2 | 3.2 | 0.00 | 0.00 | 0.00 | 67 | 1008.5 |
| 20260508132220 | 8 | 229 | 0.0 | 1.6 | 0.00 | 0.00 | 0.00 | 72 | 1008.4 |
| 20260508131715 | 7 | 231 | 0.0 | 1.6 | 0.00 | 0.00 | 0.00 | 70 | 1008.5 |
| 20260508131212 | 7 | 251 | 1.6 | 1.6 | 0.00 | 0.00 | 0.00 | 70 | 1008.3 |
| 20260508130709 | 7 | 243 | 1.6 | 1.6 | 0.00 | 0.00 | 0.00 | 69 | 1008.3 |
| 20260508130206 | 7 | 254 | 1.6 | 1.6 | 0.00 | 0.00 | 0.00 | 72 | 1008.4 |
| 20260508125701 | 7 | 314 | 0.0 | 1.6 | 0.00 | 0.00 | 0.00 | 73 | 1008.6 |
| 20260508125158 | 7 | 6 | 0.0 | 1.6 | 0.00 | 0.00 | 0.00 | 73 | 1008.6 |
| 20260508124656 | 7 | 31 | 0.0 | 0.0 | 0.00 | 0.00 | 0.00 | 73 | 1008.5 |
| 20260508124153 | 7 | 339 | 3.2 | 3.2 | 0.00 | 0.00 | 0.00 | 74 | 1008.6 |
| 20260508123651 | 7 | 242 | 1.6 | 3.2 | 0.00 | 0.00 | 0.00 | 72 | 1008.4 |
| 20260508123149 | 7 | 267 | 1.6 | 1.6 | 0.00 | 0.00 | 0.00 | 71 | 1008.4 |
| 20260508122644 | 6 | 250 | 1.6 | 3.2 | 0.00 | 0.00 | 0.00 | 71 | 1008.6 |
| 20260508122141 | 6 | 215 | 0.0 | 0.0 | 0.00 | 0.00 | 0.00 | 74 | 1008.4 |
| 20260508121640 | 6 | 228 | 0.0 | 1.6 | 0.00 | 0.00 | 0.00 | 71 | 1008.5 |
| 20260508121138 | 6 | 283 | 1.6 | 1.6 | 0.00 | 0.00 | 0.00 | 72 | 1008.7 |
| 20260508120635 | 6 | 247 | 1.6 | 3.2 | 0.00 | 0.00 | 0.00 | 76 | 1008.6 |
| 20260508120133 | 6 | 278 | 1.6 | 3.2 | 0.00 | 0.00 | 0.00 | 79 | 1008.3 |
| 20260508115631 | 5 | 299 | 1.6 | 4.8 | 0.00 | 0.00 | 0.00 | 82 | 1008.5 |
| 20260508115127 | 5 | 227 | 3.2 | 3.2 | 0.00 | 0.00 | 0.00 | 82 | 1008.2 |
| 20260508114624 | 5 | 218 | 0.0 | 0.0 | 0.00 | 0.00 | 0.00 | 83 | 1008.5 |
| 20260508114120 | 5 | 218 | 0.0 | 0.0 | 0.00 | 0.00 | 0.00 | 84 | 1008.1 |
| 20260508113617 | 5 | 218 | 0.0 | 3.2 | 0.00 | 0.00 | 0.00 | 84 | 1008.2 |
| 20260508113116 | 3 | 183 | 1.6 | 1.6 | 0.00 | 0.00 | 0.00 | 89 | 1008.2 |
| 20260508112611 | 3 | 126 | 0.0 | 1.6 | 0.00 | 0.00 | 0.00 | 89 | 1008.0 |
| 20260508112109 | 4 | 229 | 0.0 | 0.0 | 0.00 | 0.00 | 0.00 | 89 | 1008.3 |
| 20260508111605 | 3 | 229 | 0.0 | 1.6 | 0.00 | 0.00 | 0.00 | 90 | 1008.4 |
| 20260508111102 | 3 | 170 | 0.0 | 1.6 | 0.00 | 0.00 | 0.00 | 93 | 1008.3 |
| 20260508110601 | 2 | 164 | 0.0 | 0.0 | 0.00 | 0.00 | 0.00 | 92 | 1008.4 |
| 20260508110056 | 2 | 164 | 1.6 | 3.2 | 0.00 | 0.00 | 0.00 | 89 | 1008.2 |
| 20260508105551 | 2 | 356 | 1.6 | 1.6 | 0.00 | 0.00 | 0.00 | 89 | 1008.3 |
| 20260508105049 | 2 | 101 | 1.6 | 3.2 | 0.00 | 0.00 | 0.00 | 89 | 1008.3 |
| 20260508104546 | 1 | 120 | 0.0 | 0.0 | 0.00 | 0.00 | 0.00 | 90 | 1008.2 |
| 20260508104042 | 1 | 112 | 0.0 | 1.6 | 0.00 | 0.00 | 0.00 | 92 | 1008.2 |
| 20260508103540 | 0 | 114 | 0.0 | 1.6 | 0.00 | 0.00 | 0.00 | 91 | 1008.1 |
| 20260508103037 | 1 | 107 | 0.0 | 0.0 | 0.00 | 0.00 | 0.00 | 90 | 1008.3 |
| 20260508102534 | 1 | 103 | 0.0 | 1.6 | 0.00 | 0.00 | 0.00 | 89 | 1008.2 |
| 20260508102032 | 1 | 127 | 0.0 | 0.0 | 0.00 | 0.00 | 0.00 | 89 | 1008.5 |
| 20260508101529 | 1 | 143 | 0.0 | 0.0 | 0.00 | 0.00 | 0.00 | 89 | 1008.3 |
| 20260508101026 | 1 | 141 | 0.0 | 0.0 | 0.00 | 0.00 | 0.00 | 89 | 1008.2 |
| 20260508100525 | 1 | 141 | 0.0 | 0.0 | 0.00 | 0.00 | 0.00 | 89 | 1008.3 |
| 20260508100021 | 1 | 141 | 0.0 | 0.0 | 0.00 | 0.00 | 0.00 | 90 | 1008.3 |
| 20260508095518 | 1 | 157 | 0.0 | 0.0 | 0.00 | 0.00 | 0.00 | 91 | 1008.5 |
| 20260508095015 | 1 | 156 | 0.0 | 0.0 | 0.00 | 0.00 | 0.00 | 90 | 1008.5 |
| 20260508094512 | 1 | 157 | 0.0 | 0.0 | 0.00 | 0.00 | 0.00 | 90 | 1008.4 |
| 20260508094009 | 1 | 156 | 0.0 | 0.0 | 0.00 | 0.00 | 0.00 | 89 | 1008.6 |
| 20260508093506 | 1 | 132 | 0.0 | 0.0 | 0.00 | 0.00 | 0.00 | 89 | 1008.6 |
| 20260508093004 | 1 | 136 | 0.0 | 0.0 | 0.00 | 0.00 | 0.00 | 88 | 1008.6 |
| 20260508092500 | 2 | 147 | 0.0 | 0.0 | 0.00 | 0.00 | 0.00 | 89 | 1008.3 |
| 20260508092000 | 1 | 157 | 0.0 | 0.0 | 0.00 | 0.00 | 0.00 | 89 | 1008.7 |
| 20260508091455 | 1 | 157 | 0.0 | 0.0 | 0.00 | 0.00 | 0.00 | 89 | 1008.6 |
| 20260508090948 | 1 | 149 | 0.0 | 0.0 | 0.00 | 0.00 | 0.00 | 87 | 1008.7 |
| 20260508090446 | 1 | 126 | 0.0 | 0.0 | 0.00 | 0.00 | 0.00 | 87 | 1008.6 |
| 20260508085941 | 1 | 141 | 0.0 | 0.0 | 0.00 | 0.00 | 0.00 | 88 | 1008.6 |
| 20260508085438 | 1 | 123 | 0.0 | 1.6 | 0.00 | 0.00 | 0.00 | 87 | 1008.7 |
| 20260508084935 | 1 | 127 | 0.0 | 0.0 | 0.00 | 0.00 | 0.00 | 88 | 1008.6 |
| 20260508084432 | 1 | 123 | 0.0 | 0.0 | 0.00 | 0.00 | 0.00 | 88 | 1008.6 |
| 20260508083930 | 1 | 108 | 0.0 | 1.6 | 0.00 | 0.00 | 0.00 | 88 | 1008.7 |
| 20260508083426 | 1 | 91 | 0.0 | 1.6 | 0.00 | 0.00 | 0.00 | 87 | 1008.8 |
| 20260508082921 | 2 | 88 | 1.6 | 1.6 | 0.00 | 0.00 | 0.00 | 87 | 1008.8 |
| 20260508082418 | 2 | 142 | 0.0 | 0.0 | 0.00 | 0.00 | 0.00 | 88 | 1008.8 |
| 20260508081916 | 2 | 165 | 0.0 | 0.0 | 0.00 | 0.00 | 0.00 | 88 | 1008.7 |
| 20260508081413 | 2 | 165 | 0.0 | 0.0 | 0.00 | 0.00 | 0.00 | 87 | 1009.0 |
| 20260508080909 | 2 | 165 | 0.0 | 0.0 | 0.00 | 0.00 | 0.00 | 84 | 1009.0 |
| 20260508080408 | 2 | 165 | 0.0 | 0.0 | 0.00 | 0.00 | 0.00 | 89 | 1009.0 |
| 20260508075903 | 2 | 165 | 0.0 | 0.0 | 0.00 | 0.00 | 0.00 | 89 | 1008.9 |
| 20260508075401 | 2 | 165 | 0.0 | 0.0 | 0.00 | 0.00 | 0.00 | 88 | 1008.8 |
| 20260508074859 | 2 | 134 | 0.0 | 0.0 | 0.00 | 0.00 | 0.00 | 87 | 1008.9 |
| 20260508074355 | 2 | 129 | 0.0 | 0.0 | 0.00 | 0.00 | 0.00 | 87 | 1008.8 |
| 20260508073852 | 2 | 112 | 0.0 | 0.0 | 0.00 | 0.00 | 0.00 | 89 | 1008.9 |
| 20260508073350 | 3 | 155 | 0.0 | 0.0 | 0.00 | 0.00 | 0.00 | 90 | 1008.9 |
| 20260508072846 | 3 | 163 | 0.0 | 0.0 | 0.00 | 0.00 | 0.00 | 91 | 1009.1 |
| 20260508072343 | 3 | 174 | 0.0 | 0.0 | 0.00 | 0.00 | 0.00 | 90 | 1009.0 |
| 20260508071840 | 3 | 174 | 0.0 | 0.0 | 0.00 | 0.00 | 0.00 | 90 | 1009.2 |
| 20260508071339 | 3 | 174 | 0.0 | 0.0 | 0.00 | 0.00 | 0.00 | 88 | 1009.1 |
| 20260508070837 | 2 | 168 | 0.0 | 0.0 | 0.00 | 0.00 | 0.00 | 86 | 1009.0 |
| 20260508070334 | 2 | 168 | 0.0 | 0.0 | 0.00 | 0.00 | 0.00 | 82 | 1009.2 |
| 20260508065831 | 2 | 168 | 0.0 | 0.0 | 0.00 | 0.00 | 0.00 | 80 | 1009.3 |
| 20260508065329 | 2 | 168 | 0.0 | 0.0 | 0.00 | 0.00 | 0.00 | 77 | 1009.0 |
| 20260508064827 | 2 | 168 | 0.0 | 0.0 | 0.00 | 0.00 | 0.00 | 77 | 1009.3 |
| 20260508064324 | 2 | 168 | 0.0 | 0.0 | 0.00 | 0.00 | 0.00 | 76 | 1009.2 |
| 20260508063822 | 2 | 168 | 0.0 | 0.0 | 0.00 | 0.00 | 0.00 | 75 | 1009.2 |
| 20260508063320 | 3 | 168 | 0.0 | 0.0 | 0.00 | 0.00 | 0.00 | 73 | 1009.2 |
| 20260508062817 | 3 | 166 | 0.0 | 0.0 | 0.00 | 0.00 | 0.00 | 71 | 1009.3 |
| 20260508062314 | 3 | 143 | 0.0 | 0.0 | 0.00 | 0.00 | 0.00 | 71 | 1009.3 |
| 20260508061811 | 3 | 165 | 0.0 | 0.0 | 0.00 | 0.00 | 0.00 | 73 | 1009.3 |
| 20260508061309 | 3 | 186 | 0.0 | 0.0 | 0.00 | 0.00 | 0.00 | 72 | 1009.2 |
| 20260508060804 | 3 | 186 | 0.0 | 0.0 | 0.00 | 0.00 | 0.00 | 71 | 1009.4 |
| 20260508060302 | 3 | 183 | 0.0 | 0.0 | 0.00 | 0.00 | 0.00 | 71 | 1009.3 |
| 20260508055757 | 4 | 160 | 0.0 | 0.0 | 0.00 | 0.00 | 0.00 | 71 | 1009.4 |
| 20260508055254 | 4 | 133 | 0.0 | 0.0 | 0.00 | 0.00 | 0.00 | 70 | 1009.3 |
| 20260508054750 | 5 | 129 | 0.0 | 0.0 | 0.00 | 0.00 | 0.00 | 68 | 1009.4 |
| 20260508054249 | 4 | 158 | 0.0 | 0.0 | 0.00 | 0.00 | 0.00 | 70 | 1009.7 |
| 20260508053745 | 5 | 158 | 0.0 | 0.0 | 0.00 | 0.00 | 0.00 | 69 | 1009.6 |
| 20260508053243 | 5 | 158 | 0.0 | 0.0 | 0.00 | 0.00 | 0.00 | 69 | 1009.7 |
| 20260508052739 | 5 | 111 | 0.0 | 0.0 | 0.00 | 0.00 | 0.00 | 67 | 1009.9 |
| 20260508052237 | 5 | 161 | 1.6 | 1.6 | 0.00 | 0.00 | 0.00 | 68 | 1009.5 |